When you browse on this site, cookies collect data to enhance your experience and personalize the content and advertising you see.
Visit our Privacy Policy to learn more. By continuing to use the site, you agree to this use of cookies and data.
  • En España
  • Lista de países
  • Para 7 días
  • Temperatura del agua
  • Mapa Satelital
  • El tiempo en el mapa
  • Informadores
  • user-avatar
    Iniciar sesión

    Tiempo cada hora Ondjiwa

    Hoy, 20 Enero, Domingo

    Tiempo Temperatura Precipitaciones Viento Presión Humedad
    00:00 +22°C° 1.4 mm 4 mps 667 mmHg 73%
    01:00 +21°C° 0 mm 2 mps 668 mmHg 77%
    02:00 +21°C° 0.2 mm 2 mps 667 mmHg 78%
    03:00 +22°C° 0.2 mm 1 mps 667 mmHg 79%
    04:00 +22°C° 0.2 mm 1 mps 667 mmHg 80%
    05:00 +22°C° 0.1 mm 1 mps 667 mmHg 80%
    06:00 +22°C° 0.1 mm 1 mps 667 mmHg 79%
    07:00 +22°C° 0.1 mm 1 mps 667 mmHg 79%
    08:00 +24°C° 0 mm 1 mps 668 mmHg 72%
    09:00 +25°C° 0 mm 1 mps 668 mmHg 66%
    10:00 +24°C° 0 mm 0 mps 669 mmHg 60%
    11:00 +28°C° 0 mm 1 mps 668 mmHg 56%
    12:00 +29°C° 0 mm 1 mps 668 mmHg 51%
    13:00 +31°C° 0 mm 1 mps 668 mmHg 47%
    14:00 +31°C° 0 mm 1 mps 668 mmHg 45%
    15:00 +31°C° 0 mm 1 mps 667 mmHg 44%
    16:00 +31°C° 0 mm 1 mps 667 mmHg 43%
    17:00 +30°C° 0 mm 1 mps 667 mmHg 46%
    18:00 +29°C° 0 mm 1 mps 667 mmHg 49%
    19:00 +28°C° 0 mm 1 mps 666 mmHg 52%
    20:00 +27°C° 0.3 mm 2 mps 667 mmHg 56%
    21:00 +26°C° 0.3 mm 2 mps 667 mmHg 61%
    22:00 +25°C° 0.3 mm 2 mps 667 mmHg 65%
    23:00 +25°C° 1.4 mm 2 mps 667 mmHg 71%

    Mañana, 21 Enero, Lunes

    Tiempo Temperatura Precipitaciones Viento Presión Humedad
    00:00 +24°C° 1.4 mm 2 mps 667 mmHg 77%
    01:00 +23°C° 1.4 mm 2 mps 667 mmHg 83%
    02:00 +23°C° 0.1 mm 2 mps 668 mmHg 82%
    03:00 +23°C° 0.1 mm 2 mps 668 mmHg 82%
    04:00 +23°C° 0.1 mm 2 mps 668 mmHg 82%
    05:00 +24°C° 0.5 mm 1 mps 668 mmHg 79%
    06:00 +24°C° 0.5 mm 1 mps 668 mmHg 77%
    07:00 +22°C° 0.5 mm 0 mps 669 mmHg 75%
    08:00 +24°C° 0 mm 0 mps 669 mmHg 67%
    09:00 +28°C° 0 mm 1 mps 670 mmHg 59%
    10:00 +30°C° 0 mm 1 mps 670 mmHg 51%
    11:00 +31°C° 0 mm 1 mps 669 mmHg 47%
    12:00 +32°C° 0 mm 2 mps 669 mmHg 44%
    13:00 +32°C° 0 mm 2 mps 669 mmHg 41%
    14:00 +34°C° 0 mm 2 mps 668 mmHg 38%
    15:00 +34°C° 0 mm 2 mps 668 mmHg 36%
    16:00 +35°C° 0 mm 2 mps 667 mmHg 34%
    17:00 +32°C° 0 mm 2 mps 667 mmHg 39%
    18:00 +31°C° 0 mm 2 mps 667 mmHg 44%
    19:00 +29°C° 0 mm 2 mps 667 mmHg 48%
    20:00 +28°C° 0 mm 2 mps 667 mmHg 51%
    21:00 +28°C° 0 mm 2 mps 667 mmHg 54%
    22:00 +27°C° 0 mm 1 mps 668 mmHg 57%
    23:00 +27°C° 0 mm 1 mps 667 mmHg 58%

    Pasado mañana, 22 Enero, Martes

    Tiempo Temperatura Precipitaciones Viento Presión Humedad
    00:00 +26°C° 0 mm 1 mps 667 mmHg 59%
    01:00 +24°C° 0 mm 0 mps 667 mmHg 60%
    02:00 +25°C° 0 mm 1 mps 667 mmHg 62%
    03:00 +25°C° 0 mm 1 mps 667 mmHg 64%
    04:00 +25°C° 0 mm 2 mps 667 mmHg 65%
    05:00 +25°C° 0 mm 2 mps 667 mmHg 63%
    06:00 +26°C° 0 mm 2 mps 668 mmHg 60%
    07:00 +26°C° 0 mm 2 mps 668 mmHg 57%
    08:00 +28°C° 0 mm 2 mps 669 mmHg 52%
    09:00 +30°C° 0 mm 3 mps 669 mmHg 46%
    10:00 +33°C° 0 mm 3 mps 669 mmHg 41%
    11:00 +34°C° 0 mm 3 mps 669 mmHg 38%
    12:00 +34°C° 0 mm 3 mps 668 mmHg 35%
    13:00 +35°C° 0 mm 3 mps 668 mmHg 33%
    14:00 +35°C° 0 mm 3 mps 667 mmHg 33%
    15:00 +34°C° 0 mm 2 mps 667 mmHg 34%
    16:00 +34°C° 0 mm 2 mps 666 mmHg 35%
    17:00 +32°C° 0 mm 2 mps 666 mmHg 38%
    18:00 +31°C° 0 mm 1 mps 666 mmHg 40%
    19:00 +30°C° 0 mm 1 mps 666 mmHg 43%
    20:00 +29°C° 0 mm 1 mps 666 mmHg 44%
    21:00 +28°C° 0 mm 1 mps 666 mmHg 45%
    22:00 +28°C° 0 mm 1 mps 667 mmHg 47%
    23:00 +27°C° 0 mm 2 mps 667 mmHg 49%

    23 Enero, Miércoles

    Tiempo Temperatura Precipitaciones Viento Presión Humedad
    00:00 +27°C° 0 mm 3 mps 666 mmHg 52%
    01:00 +26°C° 0 mm 4 mps 666 mmHg 54%
    02:00 +26°C° 0 mm 4 mps 666 mmHg 53%
    03:00 +26°C° 0 mm 3 mps 666 mmHg 52%
    04:00 +26°C° 0 mm 3 mps 666 mmHg 51%
    05:00 +26°C° 0 mm 3 mps 666 mmHg 51%
    06:00 +26°C° 0 mm 3 mps 667 mmHg 51%
    07:00 +26°C° 0 mm 3 mps 667 mmHg 51%
    08:00 +28°C° 0 mm 4 mps 668 mmHg 44%
    09:00 +30°C° 0 mm 4 mps 668 mmHg 37%
    10:00 +34°C° 0 mm 4 mps 669 mmHg 31%
    11:00 +35°C° 0 mm 4 mps 668 mmHg 26%
    12:00 +36°C° 0 mm 4 mps 668 mmHg 22%
    13:00 +38°C° 0 mm 4 mps 667 mmHg 18%
    14:00 +37°C° 0 mm 3 mps 666 mmHg 18%
    15:00 +37°C° 0 mm 3 mps 666 mmHg 19%
    16:00 +36°C° 0 mm 2 mps 665 mmHg 20%
    17:00 +35°C° 0 mm 2 mps 665 mmHg 23%
    18:00 +32°C° 0 mm 2 mps 665 mmHg 26%
    19:00 +30°C° 0 mm 2 mps 665 mmHg 29%
    20:00 +29°C° 0 mm 2 mps 665 mmHg 34%
    21:00 +28°C° 0 mm 2 mps 666 mmHg 38%
    22:00 +27°C° 0 mm 2 mps 666 mmHg 42%
    23:00 +27°C° 0 mm 3 mps 666 mmHg 44%

    24 Enero, Jueves

    Tiempo Temperatura Precipitaciones Viento Presión Humedad
    00:00 +26°C° 0 mm 3 mps 665 mmHg 46%
    01:00 +25°C° 0 mm 3 mps 665 mmHg 48%
    02:00 +24°C° 0 mm 3 mps 665 mmHg 50%
    03:00 +24°C° 0 mm 2 mps 665 mmHg 52%
    04:00 +23°C° 0 mm 2 mps 664 mmHg 55%
    05:00 +24°C° 0 mm 2 mps 665 mmHg 53%
    06:00 +24°C° 0 mm 2 mps 666 mmHg 51%
    07:00 +24°C° 0 mm 2 mps 666 mmHg 49%
    08:00 +27°C° 0 mm 1 mps 667 mmHg 42%
    09:00 +31°C° 0 mm 1 mps 667 mmHg 34%
    10:00 +34°C° 0 mm 1 mps 668 mmHg 27%
    11:00 +35°C° 0 mm 1 mps 668 mmHg 24%
    12:00 +37°C° 0 mm 1 mps 668 mmHg 21%
    13:00 +37°C° 0 mm 0 mps 667 mmHg 18%
    14:00 +40°C° 0 mm 1 mps 667 mmHg 17%
    15:00 +39°C° 0 mm 2 mps 666 mmHg 16%
    16:00 +39°C° 0 mm 2 mps 665 mmHg 16%
    17:00 +38°C° 0 mm 2 mps 665 mmHg 19%
    18:00 +36°C° 0 mm 2 mps 665 mmHg 21%
    19:00 +34°C° 0 mm 2 mps 665 mmHg 24%
    20:00 +32°C° 0 mm 2 mps 665 mmHg 26%
    21:00 +31°C° 0 mm 2 mps 666 mmHg 28%
    22:00 +30°C° 0 mm 1 mps 666 mmHg 31%
    23:00 +30°C° 0 mm 2 mps 666 mmHg 32%

    25 Enero, Viernes

    Tiempo Temperatura Precipitaciones Viento Presión Humedad
    00:00 +29°C° 0 mm 2 mps 666 mmHg 34%
    01:00 +28°C° 0 mm 2 mps 665 mmHg 36%
    02:00 +27°C° 0 mm 3 mps 665 mmHg 38%
    03:00 +26°C° 0 mm 3 mps 665 mmHg 40%
    04:00 +26°C° 0 mm 3 mps 665 mmHg 42%
    05:00 +26°C° 0 mm 3 mps 666 mmHg 42%
    06:00 +26°C° 0 mm 2 mps 666 mmHg 42%
    07:00 +26°C° 0 mm 2 mps 667 mmHg 43%
    08:00 +30°C° 0 mm 2 mps 668 mmHg 37%
    09:00 +33°C° 0 mm 1 mps 668 mmHg 31%
    10:00 +36°C° 0 mm 1 mps 669 mmHg 25%
    11:00 +37°C° 0 mm 1 mps 669 mmHg 23%
    12:00 +37°C° 0 mm 0 mps 668 mmHg 21%
    13:00 +38°C° 0 mm 0 mps 668 mmHg 19%
    14:00 +37°C° 0 mm 0 mps 667 mmHg 21%
    15:00 +39°C° 0 mm 1 mps 667 mmHg 22%
    16:00 +36°C° 0 mm 1 mps 666 mmHg 24%
    17:00 +35°C° 0 mm 1 mps 666 mmHg 25%
    18:00 +34°C° 0 mm 1 mps 666 mmHg 27%
    19:00 +33°C° 0 mm 1 mps 666 mmHg 28%
    20:00 +32°C° 0 mm 1 mps 666 mmHg 30%
    21:00 +31°C° 0 mm 1 mps 667 mmHg 31%
    22:00 +31°C° 0 mm 2 mps 667 mmHg 33%
    23:00 +29°C° 0.2 mm 2 mps 667 mmHg 37%
    Mostrar más